Погода в Калаче

Погода в Калаче : погода сейчас, прогноз погоды и архив. Всё, что Вы хотите узнать о погоде в Калаче!

Поиск расширенной информации на нашем сайте:

Другие новости

Новости СМИ2

Главная страница сайта

Новости сайта

03.07.2017

Напоминаем, что на нашем специализированном сайте Метеоцентр.Азия вы можете получить высокодетализированные автоматические прогнозы погоды по пунктам России, СНГ и мира в авиационном формате (включающие направление и скорость ветра, видимость, явления погоды, количество и форму облачности, нижнюю и верхнюю границу облачности).


Погода в Калаче - сегодня

Время (UTC), дата Ветер
(°,м/с) 
Видим.   Явления Облачность Т
(°С)
Тd
(°С)
f(%) Тe
(°С)
Pmin
(гПа)
dP
(гПа)
Po
(мм)
O2
(г/м3)
Тmin Tmax R s Состояние
почвы
09 20.01.18 210 (ЮЗ) 10 км    10/10 2000 м 
[Ac As]
-5 -6.7 88 -8  1017.5  0.7  754  310           
12 20.01.18 190 (Ю) 10 км    10/10 2000 м 
[Ac As]
-2.5 -4.4 87 -5  1017.3  -0.1  754  307           
15 20.01.18 170 (Ю) 10 км    10/0 верхняя 
[Cs]
-3 -4.7 88 -3  1017.6  0.3  754  308    -2.3       
18 20.01.18 170 (Ю) 10 км    10/10 600 м 
[Sc]
-2.8 -4.1 91 -5  1017.2  -0.4  754  307           
21 20.01.18 140 (ЮВ) 4000 м  слаб. снег  10/10 300 м 
[Frnb|Ns]
-3.1 -3.5 97 -5  1015.3  -1.9  753  307           
00 21.01.18 170 (Ю) 4000 м  слаб. снег  10/10 300 м 
[Frnb|Ns]
-2.3 -2.6 98 -3  1013.5  -1.8  751  306           
03 21.01.18 180 (Ю) 4000 м  слаб. снег  10/10 300 м 
[Frnb|Ns]
+0 -0.8 94 -2  1011.8  -1.5  750  302  -3.5    равномерный
сухой снег
100% 
06 21.01.18 180 (Ю) 3{10}  10 км  {снег}  9/8 300 м верхняя 
[Sc|Ci fib]
+0 -1.8 88 -2  1010.7  -1.1  749  302           
09 21.01.18 160 (Ю) 4{11}  10 км    10/10 300 м 
[Sc]
-0.7 -2.5 88 -3  1008.9  -1.8  748  302           
12 21.01.18 160 (Ю) 5{10}  4000 м  слаб. снег  10/10 300 м 
[Frnb|Ns]
+0.1 -0.5 96 -3  1006.1  -2.8  746  300           
15 21.01.18 220 (ЮЗ) 5{13}  4000 м  слаб. снег  10/10 300 м 
[Frnb|Ns]
+0.8 +0.3 96 -2  1006.7  0.7  746  300    +0.8     
18 21.01.18 270 (З) 4{11}  10 км  {снег}  10/10 600 м 
[Sc]
-1.4 -3.7 84 -4  1011.1  4.3  750  304           
21 21.01.18 270 (З) 10 км    10/10 600 м 
[Sc]
-2.5 -5.1 82 -5  1014.5  3.2  752  306           
00 22.01.18 тихо ()   10 км    1/0 верхняя 
[Ci fib]
-7.6 -10.2 82 -8  1016.4  1.7  753  313           
03 22.01.18 тихо ()   10 км    ясно 
-11.6 -12.2 95 -12  1017.7  1.1  754  319  -11.6    0.4  10  равномерный
сухой снег
100% 
06 22.01.18 тихо ()   4000 м  дымка  10/10 2000 м 
[Ns]
-13.4 -14.7 90 -13  1019.7  1.8  756  321  -13.9         
09 22.01.18 350 (С) 4000 м  дымка  10/10 2000 м 
[As trans]
-7.3 -9 88 -7  1020.1  0.7  756  314           
12 22.01.18 010 (С) 10 км    10/10 2000 м 
[As trans]
-5.1 -8 80 -5  1019.2  -0.7  756  311           
15 22.01.18 030 (СВ) 10 км    10/10 2000 м 
[As trans]
-4.6 -7 83 -4  1019  -0.2  755  310    -4.2       
18 22.01.18 030 (СВ) 10 км    10/10 600 м 
[Sc]
-4.7 -6.3 89 -6  1018.9  -0.1  755  310           
21 22.01.18 060 (СВ) 10 км    10/10 2000 м 
[Ac As]
-4.4 -6.4 86 -8  1017.6  -1.3  754  310           
00 23.01.18 080 (В) 10 км    10/10 2000 м 
[Ac As]
-4.4 -6.4 86 -7  1017.4  -0.2             
03 23.01.18 060 (СВ) 4000 м  слаб. снег  10/10 2000 м 
[Ns]
-4.4 -5.3 93 -8  1016.8  -0.6  754  309  -4.7    11  равномерный
сухой снег
100% 
06 23.01.18 060 (СВ) 6{10}  4000 м  слаб. снег  10/10 2000 м 
[Ns]
-5 -6.3 91 -9  1016.1  -0.7  753  310  -5         
09 23.01.18 070 (В) 4{10}  4000 м  слаб. снег  10/10 2000 м 
[Ns]
-4.9 -6.6 88 -8  1016.2  0.1  753  310           
Время (UTC), дата Ветер
(°,м/с) 
Видим.   Явления Облачность Т
(°С)
Тd
(°С)
f(%) Тe
(°С)
Pmin
(гПа)
dP
(гПа)
Po
(мм)
O2
(г/м3)
Тmin Tmax R s Состояние
почвы

Для получения пояснительной информации подведите курсор к названию столбца.

ПОГОДА в Калаче - архив

Всё, что Вы хотите узнать о погоде в Калаче - удобно и подробно!

Выберите нужную дату (начиная с 1 января 2015* года) и нажмите кнопку "Найти".
Будут отображены архивные сводки погоды по пункту Калач, начиная с указанной даты.


Отображать данные в формате CSV (для использования в таблицах Excel)


Внимание! Наш архив погоды предназначен исключительно для личного некоммерческого использования в познавательных целях. Если Вам необходимы официальные справки о состоянии погоды (для производственных, юридических, коммерческих и т.п. целей), обращайтесь в органы Росгидромета.

*Примечание: данная дата относится к архиву по метеостанциям СССР (Россия, СНГ, Балтия).
Архив по метеостанциям Зарубежной Европы и Азии (кроме Китая) хранится 10 дней, по другим регионам земного шара (Китай, Африка, Америка, Австралия, Океания) - 1 день.

Калач - район местоположения метеостанции


Название, широта, долгота, высота метеостанции:
Калач 50.4°ш. 41.1°д. 92 м над ур. моря [Российская Федерация]

Дополнительная информация

В oтличие oт бoльшинства пoгoдных сайтoв мы публикуем пoдрoбную метеoинфoрмацию в детальнoм прoфессиoнальнoм фoрмате.

Характеристики температуры и влажнoсти вoздуха измеряются на высoте 2 м в тени вдали oт зданий и деревьев.
Скoрoсть ветра измеряется на высoте 10 м (на урoвне рoста челoвека скoрoсть ветра ниже в 1.5-2 раза). Если метеoстанция нахoдится в гoрoде или в лесу, тo скoрoсть ветра занижена на 2-4 м/с пo сравнению с oткрытым местoм. Скoрoсть ветра над акватoриями крупных рек и oзёр, а также на вершинах хoлмoв на 2-5 м/с выше, чем в oбычных услoвиях.
Атмoсфернoе давление в разных тoчках местнoсти мoжет значительнo oтличаться oт давления на метеoстанции, в зависимoсти oт услoвий рельефа (при пoдъёме на 10 м давление пoнижается примернo на 1 мм рт.ст.).